Location: Abundant Grace Fellowship
(35.0349°N, 90.0924°W)
Time: 21:17:50
(UTC+00:00)

PSLV R/B - Pass Details

Date: 18 January 2026
Orbit: 560 x 588 km, 98.0° (Epoch: 10 February)

Event Time Altitude Azimuth Distance (km) Brightness Sun altitude
Rises 00:27:00 0° 155° (SSE) 2,792 6.8 -14.9°
Reaches altitude 10° 00:29:10 10° 150° (SSE) 1,900 5.9 -15.3°
Maximum altitude 00:33:10 51° 75° (ENE) 744 3.5 -16.1°
Drops below altitude 10° 00:37:12 10° 359° (N) 1,920 6.0 -16.9°
Sets 00:39:25 0° 354° (N) 2,825 6.9 -17.3°
